Location: Unspecified
(40.7945°N, 0.0000°E)
Time: 07:10:12
(UTC+00:00)

Explorer 7 - Pass Details

Date: 28 January 2021
Orbit: 484 x 677 km, 50.3° (Epoch: 28 February)

Event Time Altitude Azimuth Distance (km) Brightness Sun altitude
Rises 03:03:57 0° 238° (WSW) 2,535 - -47.0°
Reaches altitude 10° 03:06:06 10° 239° (WSW) 1,660 - -46.7°
Maximum altitude 03:09:50 80° 326° (NW) 502 - -46.0°
Drops below altitude 10° 03:13:42 10° 55° (NE) 1,711 - -45.3°
Sets 03:15:56 0° 56° (ENE) 2,622 - -44.9°
